Pagina principale
METAR-TAF:

METAR-TAF

Aeroporti :

Jendouba, Tunisia

latitudine: 36-29N, longitudine: 008-48E, altezza: 143 m

Osservazione

Il bollettino è stato emesso 21 minuti fa, alle 16:00 UTC
Vento 8 kt da nord/nord-ovest, variando fra ovest/nord-ovest e nord/nord-est
Temperature 40°C
Umidità 10%
Pressione 1011 hPa
Visibilità 10 km o più
Poco nuvoloso ad un'altezza di 2000 ft

METAR: DTTN 131600Z 34008KT 300V020 9999 FEW020 40/03 Q1011 SIROCCO

Ora: 17:21 (16:21 UTC)


TAF: mancante

Osservazioni e previsioni meteorologiche di più di 4000 aeroporti (messaggi METAR e TAF).

Le stazioni disponibili sono rappresentate dai dischi gialli e rossi sulla carta.

Puntare il mouse per vedere il nome della stazione.

Clicca sopra per visualizzare le osservazioni e previsioni meteorologiche.

Per cambiare la mappa : fare clic sui pulsanti verdi con una croce nera per ingrandire, il pulsante verde con un trattino per diminuire, o sulla freccia verde per le mappe adiacenti.


METAR-TAF: